Temp
62 62 62 63 63 62 62 63 63 63 63 63 63 63 64 64 63 63 57 67 71 71 70 71 69 67 66 61 63 62 49 48 53 55 56 58 54 54 55 46 41 42 40 41 44
62 62 62 62 62 62 62 62 62 62 62 63 63 63 64 64 62 57 68 73 73 70 66 67 63 65 58 58 58 53 47 50 53 55 55 56 54 50 47 44 39 38 41 43 43
61 61 61 61 61 61 61 61 62 62 62 62 62 63 63 64 57 60 70 72 72 70 69 73 70 65 58 60 57 53 47 52 50 55 59 54 50 55 47 39 39 38 37 39 40
61 61 61 61 61 61 61 61 61 61 62 62 62 63 63 61 46 65 70 69 71 70 68 68 67 59 56 54 61 49 52 52 48 51 55 50 49 39 37 35 40 39 39 39 38
60 60 60 60 60 60 60 60 61 61 61 61 62 62 60 53 57 71 70 69 70 66 64 65 62 60 54 58 60 54 50 50 49 47 46 47 41 35 33 37 39 39 37 36 36
59 59 59 59 59 59 59 59 60 60 61 61 62 61 55 47 72 74 72 69 67 64 64 66 64 66 61 59 57 56 52 48 49 47 44 39 36 41 34 38 37 36 34 34 34
59 59 58 58 58 59 59 59 59 60 60 61 62 61 53 53 72 73 72 68 68 65 62 69 69 64 62 54 58 54 45 47 47 46 45 44 37 36 36 38 35 34 34 33 33
58 58 58 59 59 59 59 59 59 59 59 61 62 59 50 70 70 70 71 67 69 70 68 70 69 63 61 59 55 49 46 38 46 48 46 44 37 33 37 36 33 33 33 32 32
58 58 58 58 58 58 58 58 58 59 61 62 58 55 50 66 63 69 70 64 67 68 67 73 65 58 56 48 42 45 36 41 41 49 44 42 35 35 38 36 33 33 33 32 31
57 57 57 58 59 58 58 58 60 61 62 64 60 49 58 58 64 68 70 68 62 62 59 59 55 48 47 45 34 39 40 44 40 45 44 40 36 35 37 36 34 33 33 32 32
57 57 57 57 58 58 57 60 54 51 57 54 56 56 59 64 66 62 67 64 62 57 47 52 45 41 45 49 51 51 46 44 46 48 43 41 39 35 35 35 34 33 32 32 32
56 57 57 57 58 57 56 53 53 55 47 60 60 59 63 63 55 59 66 55 53 45 51 46 41 51 54 53 50 49 46 44 42 46 43 42 41 38 35 33 35 34 32 32 31
56 57 57 57 57 55 57 55 61 60 46 56 59 57 58 60 55 54 60 56 50 47 47 43 48 55 53 50 48 47 44 43 41 40 40 36 36 35 37 37 37 38 36 35 31
56 56 57 56 53 59 56 61 60 61 41 47 51 57 60 58 51 63 62 57 52 46 49 47 55 52 49 48 50 42 51 50 38 35 28 39 25 37 37 33 35 34 36 34 32
55 56 56 56 54 55 58 62 62 56 28 50 51 64 60 53 53 55 62 55 47 49 49 44 47 46 46 48 52 46 49 48 40 35 34 32 28 35 38 31 33 34 35 34 34
55 55 56 57 57 60 61 61 56 38 28 45 52 49 49 51 54 54 53 56 56 48 50 48 55 50 50 54 53 52 45 45 41 35 26 35 32 31 32 36 37 38 37 36 34
54 54 54 59 53 61 60 54 37 31 51 44 46 50 48 47 48 49 45 43 40 35 35 45 46 50 53 46 49 46 39 26 25 25 25 38 33 36 41 42 42 39 38 36 32
54 54 57 60 61 59 55 45 31 44 45 50 49 49 43 49 47 47 41 37 46 45 39 33 31 45 50 47 43 43 41 30 24 25 28 41 29 35 33 35 37 43 40 33 29
53 55 56 59 60 57 47 34 38 42 46 44 46 41 42 47 45 41 39 39 40 44 34 34 35 50 51 52 50 41 36 46 36 38 32 31 29 29 30 31 34 37 33 28 27
51 55 55 60 59 53 43 39 43 48 47 47 38 44 38 40 36 37 35 41 43 44 45 37 31 46 49 51 50 45 48 34 35 24 23 28 31 33 26 27 32 30 27 26 26
49 49 54 60 57 47 36 41 46 51 49 43 41 39 39 37 38 36 35 40 40 43 45 37 34 36 44 40 38 42 40 41 41 35 26 26 31 27 29 31 30 28 27 25 24
48 42 55 58 42 44 39 44 45 46 49 46 45 42 38 39 33 35 32 37 41 40 35 37 32 30 33 42 44 46 43 42 33 30 35 33 31 30 31 34 32 28 27 25 24
44 46 55 53 36 39 44 44 45 43 43 43 42 44 45 39 31 35 37 39 39 38 34 34 31 27 29 33 36 33 35 40 41 36 32 28 29 30 31 31 31 27 25 24 23
43 39 44 47 46 39 38 39 38 43 41 43 41 42 38 35 37 31 35 37 35 38 39 35 31 28 25 27 31 29 32 36 37 30 31 33 25 19 27 26 27 26 23 22 20
44 38 36 35 38 39 40 39 36 36 42 42 37 38 35 25 30 28 34 35 35 37 35 33 26 29 31 33 31 31 30 32 32 33 30 33 36 25 26 25 25 23 21 19 17
36 35 39 36 37 34 37 34 36 37 37 35 34 37 37 31 32 26 28 26 26 29 32 32 26 28 25 32 30 27 30 31 32 33 34 29 26 25 28 26 21 20 19 16 15
41 40 36 39 36 31 31 32 33 34 36 38 34 31 30 33 33 34 31 28 27 27 22 22 24 22 21 26 26 21 23 29 32 34 32 30 32 22 21 21 19 18 17 15 14
MSLP
1015.98 1015.60 1015.28 1015.07 1014.86 1014.70 1014.52 1014.32 1014.09 1013.74 1013.51 1013.39 1013.08 1012.84 1012.30 1012.38 1012.52 1012.59 1011.84 1011.33 1010.87 1011.00 1011.28 1011.04 1011.43 1011.54 1011.94 1012.04 1012.48 1012.71 1012.79 1012.77 1012.54 1012.37 1012.85 1013.91 1014.94 1016.96 1018.62 1020.13 1022.57 1024.03 1025.07 1025.74 1026.16
1016.03 1015.73 1015.44 1015.12 1014.88 1014.74 1014.66 1014.45 1014.19 1013.86 1013.53 1013.30 1013.16 1012.73 1012.34 1012.29 1012.25 1011.82 1010.92 1010.81 1010.94 1011.24 1011.25 1010.82 1010.88 1011.54 1012.12 1012.40 1012.89 1012.88 1013.28 1013.33 1013.73 1013.42 1013.35 1014.59 1016.00 1018.13 1019.94 1021.72 1023.95 1025.26 1026.13 1026.09 1026.34
1016.24 1015.75 1015.52 1015.26 1014.93 1014.67 1014.47 1014.36 1014.17 1013.94 1013.55 1013.32 1013.06 1012.79 1012.37 1012.17 1011.92 1010.28 1010.22 1010.43 1010.67 1011.23 1011.06 1010.19 1010.57 1011.04 1011.53 1011.97 1012.57 1013.04 1013.75 1014.16 1015.02 1014.60 1014.32 1016.01 1017.76 1019.20 1020.98 1023.30 1024.67 1025.35 1026.33 1026.63 1026.72
1016.29 1015.91 1015.53 1015.22 1014.97 1014.55 1014.33 1014.18 1013.99 1013.79 1013.47 1013.11 1012.84 1012.63 1012.25 1012.35 1011.05 1010.01 1010.06 1010.37 1010.62 1011.15 1010.95 1010.13 1010.18 1010.74 1011.11 1011.51 1012.34 1013.28 1014.25 1015.03 1016.12 1016.09 1015.98 1017.45 1019.28 1021.63 1022.99 1024.94 1025.75 1026.46 1026.82 1026.95 1027.13
1016.41 1015.98 1015.62 1015.25 1014.97 1014.59 1014.20 1014.03 1013.77 1013.63 1013.46 1013.12 1012.88 1012.66 1012.68 1012.11 1010.31 1009.82 1009.73 1009.96 1010.45 1011.19 1010.75 1010.17 1010.14 1010.66 1010.82 1011.15 1011.75 1012.78 1014.74 1016.03 1016.99 1017.08 1018.08 1019.07 1020.86 1022.62 1024.97 1025.75 1026.48 1027.17 1027.51 1027.70 1028.04
1016.32 1015.80 1015.44 1015.16 1014.82 1014.50 1014.17 1013.92 1013.76 1013.54 1013.33 1013.01 1012.84 1012.85 1012.81 1011.38 1009.67 1009.63 1009.77 1010.03 1010.32 1010.84 1010.60 1010.17 1009.90 1010.06 1010.29 1010.55 1011.35 1012.25 1014.53 1016.52 1017.30 1017.71 1019.20 1020.26 1022.08 1022.77 1025.52 1026.47 1026.69 1027.41 1028.20 1028.18 1028.58
1016.25 1015.78 1015.36 1014.92 1014.60 1014.23 1014.06 1013.79 1013.53 1013.34 1013.13 1013.01 1012.80 1012.70 1012.31 1010.74 1009.55 1009.66 1009.85 1009.80 1010.29 1010.66 1010.55 1010.04 1009.97 1010.03 1010.27 1011.15 1012.31 1013.61 1015.48 1016.30 1017.32 1017.99 1018.75 1020.18 1022.35 1023.09 1024.88 1026.30 1026.73 1027.22 1028.37 1028.70 1028.82
1016.08 1015.75 1015.33 1014.70 1014.30 1014.05 1013.77 1013.64 1013.35 1013.24 1013.03 1012.69 1012.65 1012.68 1011.49 1009.92 1009.98 1009.82 1009.64 1009.77 1010.32 1010.45 1010.30 1010.08 1009.94 1010.19 1010.33 1011.61 1012.85 1013.41 1014.56 1015.59 1016.53 1017.47 1018.65 1019.67 1020.96 1023.21 1024.86 1025.71 1026.57 1027.22 1027.95 1028.59 1029.07
1015.91 1015.61 1015.26 1014.69 1014.15 1013.80 1013.46 1013.17 1012.89 1012.65 1012.61 1012.52 1012.56 1012.34 1010.96 1010.09 1009.87 1009.43 1009.54 1009.66 1009.92 1010.31 1010.26 1010.04 1010.23 1010.50 1011.16 1011.81 1012.76 1013.09 1013.75 1014.61 1016.04 1016.84 1018.04 1019.53 1020.86 1023.13 1024.68 1025.13 1025.86 1026.61 1027.45 1028.49 1029.23
1015.75 1015.28 1014.94 1014.65 1014.08 1013.67 1013.24 1012.85 1012.28 1012.16 1012.21 1012.10 1012.37 1012.40 1010.59 1009.86 1009.72 1009.35 1009.49 1009.67 1010.05 1010.39 1010.61 1010.39 1010.72 1010.84 1011.45 1011.77 1011.95 1012.46 1013.09 1013.41 1014.39 1015.67 1017.14 1018.66 1020.27 1021.94 1023.56 1024.37 1025.44 1026.57 1027.44 1028.08 1028.89
1015.71 1014.99 1014.59 1014.41 1014.07 1013.63 1013.13 1012.27 1012.63 1012.40 1011.74 1010.77 1010.49 1010.08 1009.74 1009.99 1009.97 1009.76 1009.60 1009.86 1010.21 1010.69 1010.77 1010.91 1011.00 1010.41 1011.00 1011.27 1011.36 1011.37 1012.03 1012.86 1013.72 1014.81 1016.07 1017.59 1019.47 1021.05 1022.78 1024.03 1025.04 1026.08 1026.94 1027.53 1028.60
1015.76 1015.03 1014.50 1014.21 1014.09 1013.83 1013.46 1012.89 1012.94 1012.94 1011.58 1010.03 1009.93 1009.87 1009.76 1009.85 1009.62 1009.73 1009.84 1010.11 1010.35 1010.55 1010.71 1011.04 1010.31 1010.45 1010.69 1010.69 1010.99 1010.91 1011.39 1012.29 1014.17 1015.18 1016.21 1017.16 1018.30 1019.83 1021.60 1022.59 1023.74 1024.87 1025.98 1026.99 1028.03
1015.78 1014.98 1014.45 1013.98 1014.03 1014.06 1013.41 1013.22 1013.20 1012.85 1011.98 1009.25 1009.25 1009.43 1009.53 1009.80 1009.32 1009.38 1009.82 1009.80 1010.09 1010.42 1010.47 1010.09 1009.87 1010.25 1009.99 1010.04 1010.26 1010.53 1010.98 1011.77 1013.25 1015.13 1016.22 1017.04 1017.42 1019.08 1020.26 1021.66 1023.07 1024.08 1025.14 1026.14 1027.23
1015.94 1015.27 1014.71 1014.13 1014.21 1013.40 1013.27 1013.36 1013.26 1013.00 1011.82 1009.75 1009.31 1008.75 1009.14 1009.69 1009.33 1008.89 1009.45 1009.80 1009.87 1009.91 1010.09 1009.89 1009.40 1009.42 1009.61 1009.53 1009.84 1010.00 1010.66 1011.41 1013.17 1014.66 1015.69 1016.16 1016.37 1016.55 1018.03 1019.99 1021.59 1022.90 1023.90 1025.01 1026.36
1016.05 1015.46 1015.20 1014.70 1014.20 1013.49 1013.64 1013.22 1013.04 1012.82 1011.35 1009.47 1009.21 1009.09 1009.07 1009.70 1009.39 1009.05 1009.44 1009.86 1009.93 1009.80 1009.91 1009.35 1009.07 1009.11 1008.98 1009.01 1009.39 1009.57 1010.54 1011.35 1012.93 1014.37 1014.74 1015.99 1016.60 1015.22 1016.69 1019.06 1019.79 1020.68 1021.99 1023.77 1025.38
1016.02 1015.42 1014.81 1014.43 1014.23 1013.62 1013.61 1013.44 1013.12 1012.45 1010.17 1009.10 1009.09 1009.21 1009.36 1009.52 1009.33 1009.78 1009.81 1010.16 1009.97 1010.24 1009.61 1009.26 1008.97 1008.91 1008.79 1008.97 1009.26 1010.01 1011.05 1011.73 1013.22 1014.36 1014.53 1014.78 1015.66 1014.65 1015.85 1015.85 1016.71 1019.32 1021.37 1023.16 1024.89
1015.84 1015.53 1015.17 1014.52 1014.00 1013.83 1013.71 1013.35 1012.97 1011.09 1009.17 1009.21 1008.86 1008.81 1009.04 1009.16 1009.46 1009.92 1010.23 1010.43 1010.40 1010.53 1010.03 1009.48 1008.83 1008.85 1008.75 1008.84 1009.25 1010.10 1011.24 1012.64 1013.54 1013.82 1012.89 1013.38 1014.20 1013.19 1013.38 1013.93 1015.05 1017.04 1019.94 1022.48 1024.81
1015.61 1015.21 1014.49 1014.08 1013.93 1013.98 1013.70 1013.37 1012.36 1010.02 1009.31 1009.44 1009.24 1008.93 1008.95 1008.85 1009.22 1009.68 1010.44 1010.72 1010.57 1010.30 1010.11 1009.81 1008.90 1008.40 1008.39 1008.24 1008.75 1009.34 1010.21 1010.54 1011.25 1011.68 1011.93 1012.54 1012.00 1012.99 1013.88 1014.62 1014.90 1015.98 1018.99 1022.13 1024.69
1015.20 1014.61 1014.26 1013.61 1013.75 1013.89 1013.80 1012.92 1011.20 1010.86 1010.65 1010.26 1009.70 1009.15 1008.84 1008.70 1009.45 1010.13 1010.88 1010.75 1010.77 1010.70 1010.75 1009.96 1008.39 1007.07 1007.06 1007.54 1008.33 1008.92 1008.96 1009.45 1010.12 1010.31 1011.18 1011.53 1012.24 1013.43 1014.52 1015.39 1015.83 1017.16 1019.63 1022.49 1024.83
1015.32 1014.03 1013.45 1013.53 1013.63 1013.68 1013.58 1012.11 1010.94 1011.01 1011.23 1010.95 1010.41 1009.43 1009.45 1009.79 1010.73 1010.95 1011.18 1010.82 1010.62 1010.56 1011.06 1010.64 1009.57 1007.53 1007.09 1007.71 1007.71 1007.46 1008.86 1009.82 1010.08 1010.26 1010.57 1010.65 1011.84 1013.10 1014.65 1015.71 1016.91 1018.68 1020.73 1023.11 1025.11
1015.17 1013.83 1013.70 1013.49 1013.49 1013.42 1012.89 1011.67 1011.14 1011.06 1011.51 1011.47 1010.94 1010.72 1010.54 1010.74 1011.00 1011.46 1011.35 1011.24 1011.54 1011.09 1010.85 1011.19 1010.77 1009.17 1008.11 1007.26 1007.22 1007.71 1008.00 1008.55 1008.97 1009.21 1009.61 1010.62 1011.31 1012.41 1013.77 1015.12 1016.55 1019.07 1021.35 1023.45 1025.60
1015.06 1014.07 1013.45 1013.35 1013.78 1012.84 1012.25 1011.93 1011.99 1011.41 1011.47 1011.49 1011.38 1011.46 1011.57 1011.50 1011.61 1012.02 1011.97 1011.97 1011.97 1012.28 1011.95 1011.75 1010.69 1009.46 1008.70 1008.47 1008.19 1007.65 1007.53 1008.05 1008.08 1008.01 1009.08 1010.88 1011.85 1013.37 1014.07 1015.31 1017.51 1019.85 1022.04 1024.25 1026.17
1015.65 1014.15 1013.49 1013.40 1013.29 1012.55 1012.02 1012.21 1012.23 1012.21 1011.97 1011.66 1011.48 1011.53 1011.74 1012.04 1012.50 1012.04 1012.01 1012.67 1012.76 1013.01 1012.97 1012.99 1011.85 1010.50 1009.42 1009.87 1009.78 1008.99 1008.87 1008.46 1008.33 1008.68 1008.90 1010.89 1011.72 1014.01 1015.01 1016.77 1018.45 1020.29 1022.75 1024.84 1026.80
1016.32 1014.69 1013.86 1013.63 1013.39 1013.64 1013.40 1012.78 1012.48 1012.66 1012.70 1012.52 1012.28 1012.24 1012.57 1012.69 1012.80 1012.88 1012.90 1013.25 1013.59 1013.74 1013.99 1014.04 1012.85 1011.84 1010.85 1010.43 1010.89 1010.31 1009.54 1008.81 1008.78 1008.81 1008.58 1009.47 1012.43 1014.77 1016.01 1017.38 1019.41 1021.17 1023.14 1025.30 1027.36
1016.31 1015.85 1015.63 1014.42 1014.04 1014.17 1014.06 1013.91 1013.57 1013.32 1013.11 1013.25 1013.07 1012.86 1013.10 1013.48 1013.60 1013.68 1013.57 1013.57 1014.03 1014.34 1014.52 1014.53 1013.59 1012.46 1011.44 1010.82 1010.76 1010.70 1010.59 1009.88 1009.12 1008.58 1009.44 1009.66 1011.91 1013.64 1015.35 1017.28 1019.63 1021.82 1024.15 1025.85 1027.99
1017.72 1017.41 1016.51 1015.59 1015.04 1015.09 1014.83 1014.51 1014.22 1014.20 1014.26 1013.81 1013.91 1014.02 1013.97 1014.09 1014.40 1014.85 1014.85 1014.73 1014.71 1014.93 1014.95 1015.03 1014.26 1013.36 1012.19 1011.40 1011.48 1011.48 1011.22 1010.74 1010.21 1009.94 1010.09 1011.21 1013.05 1014.45 1016.32 1018.59 1020.73 1022.64 1024.49 1026.50 1028.34
1018.61 1018.31 1017.87 1015.98 1015.16 1015.26 1015.06 1015.07 1015.21 1015.49 1015.15 1014.91 1015.06 1015.36 1015.25 1015.19 1015.33 1015.26 1015.40 1015.46 1015.42 1015.56 1015.38 1015.48 1015.10 1014.35 1013.01 1012.53 1012.81 1012.60 1011.60 1011.61 1010.96 1010.40 1011.07 1012.00 1013.19 1015.97 1017.95 1019.67 1021.13 1023.12 1025.21 1027.12 1028.96
Wind_Speed
17 16 17 16 16 16 15 14 13 12 12 12 15 16 10 8 8 9 11 9 6 2 2 10 10 6 4 3 1 2 2 8 13 9 2 8 5 6 10 10 7 6 4 5 4
17 16 16 16 16 16 16 15 14 13 13 13 12 13 11 6 9 12 11 13 12 1 7 16 14 12 4 6 3 3 2 2 6 7 1 10 8 7 5 7 6 8 8 8 8
17 17 16 16 16 15 15 15 13 12 12 12 11 13 10 6 7 6 1 16 13 9 13 13 13 12 8 6 4 4 1 4 5 10 7 12 13 4 13 4 5 7 7 8 10
18 17 16 16 16 16 15 15 14 13 13 12 12 13 10 4 3 4 4 3 14 11 14 15 15 12 10 9 12 5 5 5 3 8 6 7 8 7 11 7 8 9 7 9 10
19 18 18 17 17 16 16 15 14 13 13 12 11 11 1 4 9 9 5 5 14 12 15 15 16 13 14 13 13 9 7 7 6 14 12 12 9 9 7 8 9 9 9 9 9
20 18 18 17 17 16 15 15 14 12 13 11 9 4 2 5 2 4 6 10 12 14 14 14 11 11 10 8 11 10 12 12 8 8 6 9 5 3 6 9 10 9 7 8 8
21 20 17 17 15 15 15 13 13 11 13 11 10 5 3 9 4 5 7 9 14 14 13 12 9 9 5 5 8 16 13 9 8 10 5 13 6 5 14 11 10 10 8 7 7
20 20 19 16 15 15 15 13 12 13 13 12 7 4 5 4 5 7 5 8 14 14 12 10 8 7 4 12 6 6 8 6 12 11 9 10 3 9 13 14 11 10 8 7 6
20 19 18 16 15 14 13 13 16 14 10 6 5 1 6 2 5 7 5 10 10 11 10 10 0 3 3 7 3 7 5 12 9 14 8 11 4 13 15 13 11 10 9 7 5
18 18 17 16 16 14 15 17 11 4 6 6 4 2 5 1 3 2 4 5 10 11 5 5 4 5 4 9 9 10 14 9 10 13 9 11 3 12 13 11 9 10 9 9 7
20 18 15 15 15 13 9 4 3 3 6 6 2 4 3 3 3 3 6 7 10 10 9 8 10 15 14 14 13 13 14 15 7 12 9 11 9 13 13 11 12 11 10 9 9
21 18 14 14 10 9 6 4 5 5 8 15 12 5 4 3 3 6 7 9 11 13 14 9 17 12 14 15 17 17 13 2 9 7 7 9 11 15 18 15 15 14 12 11 10
20 16 13 11 9 4 3 6 6 10 5 3 14 11 4 5 4 11 12 10 10 15 16 11 11 18 15 15 16 15 12 6 6 7 3 3 7 13 15 12 14 13 12 12 13
19 16 13 14 5 2 1 4 4 5 4 7 4 3 7 5 6 10 9 6 7 14 15 15 14 19 18 16 13 14 9 10 16 7 4 10 6 12 14 15 16 14 15 15 14
18 15 12 9 6 2 5 5 5 3 4 3 5 4 4 7 4 5 8 8 7 11 10 8 8 11 16 18 12 12 3 10 10 6 3 7 4 7 17 11 18 21 20 17 17
18 13 10 4 4 5 6 7 3 4 4 4 5 7 6 11 4 2 7 4 3 9 10 13 5 5 14 10 10 5 3 6 6 3 7 8 8 7 10 16 20 16 17 17 16
19 13 5 5 4 5 5 3 4 4 2 5 2 4 8 8 11 8 10 11 8 5 9 11 15 5 6 9 9 7 9 3 4 6 6 9 11 11 10 7 12 23 19 18 16
19 11 5 5 4 4 3 3 5 1 4 4 3 5 5 7 11 12 5 4 17 14 4 11 11 20 12 14 14 16 16 8 9 9 6 13 10 8 4 5 1 16 22 21 19
19 4 3 3 1 2 3 5 4 6 4 7 10 9 10 12 2 1 5 11 8 18 8 7 14 7 17 14 18 11 21 15 10 12 3 5 1 1 4 3 1 20 22 20 18
5 3 2 2 1 3 3 6 4 3 5 5 6 4 8 4 1 2 4 3 11 13 13 4 5 7 14 13 17 14 8 10 10 8 14 7 8 8 8 11 12 18 20 19 17
3 3 2 2 2 3 5 6 3 3 3 5 8 12 8 4 3 3 4 4 5 5 13 7 5 2 2 14 20 14 12 11 7 13 7 7 7 2 2 16 20 18 18 19 17
3 3 2 2 3 3 5 3 4 4 3 5 5 8 10 10 5 5 8 7 4 4 5 1 4 9 15 4 5 15 21 19 10 13 15 9 9 1 4 15 17 17 18 17 17
3 2 2 1 3 4 3 4 4 4 7 4 5 5 8 6 4 5 6 4 3 0 3 3 3 4 4 1 4 5 10 17 21 3 16 12 8 1 6 11 15 20 18 17 17
3 3 3 3 2 4 6 6 3 3 4 4 7 6 7 9 7 5 3 2 2 1 2 1 4 7 9 4 1 6 11 18 19 8 17 19 3 4 11 16 17 18 19 18 16
1 1 2 2 1 3 4 5 8 5 5 3 5 8 6 3 6 6 7 4 4 2 1 3 5 3 11 11 9 9 10 14 22 21 12 9 16 13 19 19 18 18 18 19 17
4 4 2 4 2 4 4 4 5 6 1 6 7 8 9 7 7 10 6 2 4 2 1 2 5 3 6 7 5 7 10 12 10 18 20 1 1 5 13 15 16 18 20 19 18
3 1 2 2 3 2 1 3 4 4 6 3 5 6 8 6 7 7 5 5 5 3 2 3 3 3 8 3 3 7 9 13 6 6 9 18 10 11 15 16 19 20 18 18 17
Wind_Direction
354 350 348 346 344 346 342 340 346 350 339 333 324 317 310 280 196 216 233 235 248 145 230 174 170 160 191 120 21 278 213 220 231 230 174 123 103 42 65 87 57 36 59 79 40
351 348 345 342 340 339 339 337 339 339 337 332 318 320 315 279 204 234 234 250 231 183 213 178 175 162 167 161 202 185 220 257 21 335 200 142 109 114 96 115 79 88 77 78 66
347 346 344 340 338 334 329 331 332 325 326 327 313 322 316 225 240 242 250 208 219 216 238 200 177 175 187 156 183 207 244 105 13 329 137 102 94 92 128 71 11 145 116 81 73
344 342 340 336 334 330 328 325 326 320 321 322 327 326 306 230 236 103 77 295 197 204 233 232 197 182 198 184 192 118 66 78 3 335 68 91 88 71 43 87 89 93 95 91 77
340 339 336 333 329 327 323 320 316 313 311 315 327 332 60 228 263 141 188 223 179 201 221 220 210 190 219 192 186 173 126 90 104 70 59 83 71 114 94 109 104 95 87 82 83
339 336 335 331 327 321 315 316 308 306 307 314 318 142 297 252 3 17 4 153 179 196 220 222 215 199 216 241 218 111 120 127 133 105 116 109 130 91 163 147 123 110 92 87 71
338 337 334 329 324 318 313 308 301 298 305 300 299 192 241 249 1 8 306 179 195 195 218 224 224 222 244 107 73 121 123 123 146 159 129 135 142 190 151 161 141 128 119 97 86
340 335 332 331 326 319 315 305 296 299 291 275 256 217 255 279 317 290 250 150 204 197 228 226 250 289 263 113 112 162 144 157 174 173 155 208 175 142 163 164 160 152 143 128 107
343 341 333 331 329 322 314 303 295 282 266 194 145 214 273 122 242 224 226 167 188 195 234 227 151 191 89 146 149 226 186 218 169 192 143 208 125 160 176 178 168 165 156 153 141
346 340 330 331 331 330 319 295 284 275 210 162 107 233 241 269 41 162 182 179 179 184 211 186 219 142 195 194 195 191 226 239 164 184 161 201 103 153 178 185 180 176 172 166 163
345 338 329 326 324 330 336 291 209 173 215 224 202 248 79 73 189 195 178 168 184 177 190 193 203 200 196 212 236 221 198 224 70 170 167 199 174 183 179 194 190 187 184 176 173
345 344 350 338 326 322 302 334 46 325 296 235 246 251 150 353 191 176 195 175 197 194 205 178 217 203 225 210 226 252 265 261 83 148 199 201 224 173 179 202 197 186 185 184 164
347 347 348 349 330 283 357 46 357 343 264 232 207 223 197 198 256 175 192 218 195 205 211 203 207 227 215 229 219 236 249 234 150 144 275 308 261 160 192 181 198 195 188 179 176
346 344 343 336 303 27 346 16 337 312 276 143 184 255 182 222 242 182 213 194 214 214 218 237 223 203 234 229 225 230 233 260 136 137 213 166 261 207 178 186 194 193 191 181 173
343 340 334 342 314 254 359 340 301 248 301 147 136 111 163 213 121 185 173 238 249 228 213 218 222 242 216 228 219 235 8 238 153 199 302 185 291 251 145 195 205 199 195 182 172
337 330 323 268 249 17 333 307 263 238 246 125 121 185 179 213 238 111 188 247 276 275 251 253 216 233 227 235 217 214 77 33 126 171 245 212 200 226 180 208 209 191 185 176 159
331 317 290 314 336 348 318 254 274 243 133 135 194 179 221 202 224 185 199 196 213 198 238 238 238 239 255 214 202 186 143 164 219 206 235 204 211 220 190 189 184 189 176 160 144
326 307 230 260 328 333 272 256 261 0 31 57 264 268 244 226 215 204 166 242 230 226 272 213 229 212 197 215 203 196 183 188 207 218 230 204 234 228 46 23 81 175 156 143 144
320 204 252 132 290 271 270 241 308 24 6 345 304 253 258 226 213 46 254 249 212 230 218 223 227 189 186 190 201 185 214 212 279 283 275 248 172 79 106 39 74 135 141 143 141
305 277 195 108 222 249 241 250 303 51 346 303 284 301 313 60 215 304 195 250 233 204 210 288 274 256 189 190 229 193 157 204 224 235 246 226 235 218 204 177 142 143 144 142 139
262 258 110 156 217 224 236 256 358 29 11 294 297 310 304 329 293 246 236 280 14 321 204 177 232 279 111 205 201 200 192 212 200 221 222 248 242 254 316 177 157 149 143 142 139
301 251 152 213 236 210 238 309 19 285 207 258 284 285 272 288 206 237 221 223 142 176 298 85 255 218 207 347 304 242 216 213 217 202 225 254 250 253 333 143 144 142 142 138 136
276 305 176 246 261 264 249 199 206 281 274 265 280 302 326 313 319 273 273 85 91 75 302 353 262 284 184 177 295 232 216 229 237 265 220 206 239 169 105 124 141 141 141 140 136
293 276 174 203 284 294 315 291 278 151 252 280 278 303 279 279 270 256 242 90 62 217 258 167 265 231 269 314 243 256 234 221 218 223 227 237 203 244 155 145 146 144 142 141 139
263 32 83 291 52 325 298 292 289 286 205 196 271 243 267 298 339 287 307 360 177 109 42 264 271 264 261 271 216 225 244 256 229 225 211 211 222 185 179 160 153 142 141 138 136
342 353 318 282 349 265 230 253 258 307 290 275 242 321 328 290 273 299 7 27 242 130 251 205 280 291 270 251 222 246 233 237 252 241 244 263 44 278 128 133 142 147 148 145 141
349 175 268 269 187 197 280 350 26 44 284 293 5 329 298 321 334 307 275 246 232 264 238 191 269 305 270 153 284 266 225 218 221 189 230 225 198 143 136 150 154 149 147 143 141